Santander Airport, Spain

10:01 AM CET en Enero 24, 2019 (GMT +0100)
Santander Airport

Tiempo Historia de LEXJ - Enero, 2019

Change the Weather History Date:

Sábado, Enero 12, 2019

  Actual Average Record
Temperature  
Temperatura media 47 ° F -  
Temperatura máxima 50 ° F 52 ° F 66 ° F (1998)
Temperatura mínima 44 ° F 42 ° F 30 ° F (2009)
Degree Days  
Grados día de calefacción 18    
Moisture  
Punto de rocío 47 ° F    
Average Humidity 97    
Maximum Humidity 100    
Minimum Humidity 84    
Precipitación  
Precipitación 0.24 pul - - ()
Presión al nivel del mar  
Presión al nivel del mar 30.54 pul    
Viento  
Velocidad del viento 6 mph ()    
Velocidad máxima del viento 9 mph    
Max Gust Speed -    
Visibilidad 5.6 Millas    
Eventos Lluvia    
Averages and records for this station are not official NWS values.
T = Trace of Precipitation, MM = Missing Value Source: Averaged Metar Reports

Daily Weather History Graph

Daily Weather History Graph

Search for Another Location

Airport or City:

Astronomía

Jan. 12, 2019 Salida Puesta
Hora real 8:46 AM CET 6:00 PM CET
Crepúsculo civil 8:14 AM CET 6:32 PM CET
Crepúsculo náutico 7:39 AM CET 7:08 PM CET
Crepúsculo astronómico 7:04 AM CET 7:42 PM CET
Luna 12:16 PM CET (1/12) Sin puesta de luna
Horas de luz 10h 18m
Horas de luz
9h 14m
Creciente, 33% of the Moon is Illuminated
Ene 12
Creciente
Ene 14
Cuarto creciente
Ene 21
Luna llena
Ene 27
Cuarto menguante
Feb 4
Nueva

Hourly Weather History & Observations

Hora (CET) Temp. Vientos helados Punto de rocío Humedad Presión Visibilidad Wind Dir Velocidad del viento Velocidad de ráfagas Precip Eventos Condiciones
12:00 AM 46 ° F - 43 ° F 84% 30.55 pul - SSO 6.9 mph - -  
12:00 AM 46.4 ° F 41.9 ° F 42.8 ° F 87% 30.54 pul 5.6 mi SO 9.2 mph - N/A   Nublado
12:30 AM 46.4 ° F 42.4 ° F 42.8 ° F 87% 30.54 pul 5.0 mi SO 8.1 mph - N/A   Muy nublado
1:00 AM 46 ° F - 43 ° F 84% 30.54 pul - SSO 8.1 mph - -  
1:00 AM 46.4 ° F 42.4 ° F 42.8 ° F 87% 30.54 pul 5.0 mi SO 8.1 mph - N/A   Muy nublado
1:30 AM 46.4 ° F 42.9 ° F 42.8 ° F 87% 30.54 pul 5.6 mi SO 6.9 mph - N/A   Nublado
2:00 AM 46 ° F - 43 ° F 84% 30.54 pul - SO 5.8 mph - -  
2:00 AM 46.4 ° F 43.5 ° F 42.8 ° F 87% 30.54 pul 5.6 mi SO 5.8 mph - N/A   Muy nublado
2:30 AM 44.6 ° F 40.7 ° F 42.8 ° F 93% 30.54 pul 4.3 mi SO 6.9 mph - N/A   Nublado
3:00 AM 46 ° F - 43 ° F 87% 30.54 pul - SSO 5.8 mph - -   Precipitación desconocida
3:00 AM 44.6 ° F 40.7 ° F 42.8 ° F 93% 30.54 pul 3.7 mi SSO 6.9 mph - N/A Lluvia Lluvia débil
3:30 AM 44.6 ° F 41.4 ° F 44.6 ° F 100% 30.54 pul - SO 5.8 mph - N/A Lluvia Lluvia
4:00 AM 45 ° F - 44 ° F 95% 30.54 pul - SSO 8.1 mph - -   Precipitación desconocida
4:00 AM 44.6 ° F 40.2 ° F 44.6 ° F 100% 30.54 pul 4.3 mi SO 8.1 mph - N/A Lluvia Lluvia débil
4:30 AM 44.6 ° F 40.2 ° F 44.6 ° F 100% 30.51 pul 4.3 mi SSO 8.1 mph - N/A   Muy nublado
5:00 AM 44.6 ° F 41.4 ° F 44.6 ° F 100% 30.51 pul - SO 5.8 mph - N/A Lluvia Lluvia débil
5:30 AM 44.6 ° F 40.7 ° F 44.6 ° F 100% 30.51 pul 5.6 mi SO 6.9 mph - N/A   Llovizna débil
6:00 AM 45 ° F - 44 ° F 96% 30.53 pul - SSO 5.8 mph - -   Precipitación desconocida
6:00 AM 44.6 ° F 40.7 ° F 44.6 ° F 100% 30.51 pul 5.6 mi SO 6.9 mph - N/A   Muy nublado
6:30 AM 46.4 ° F 42.9 ° F 44.6 ° F 93% 30.51 pul 3.1 mi SO 6.9 mph - N/A   Llovizna débil
7:00 AM 45 ° F - 45 ° F 99% 30.52 pul 2 mi SO 2.3 mph - - Lluvia Llovizna débil
7:00 AM 44.6 ° F 41.4 ° F 44.6 ° F 100% 30.51 pul 2.5 mi SO 5.8 mph - N/A   Llovizna débil
7:30 AM 44.6 ° F 40.7 ° F 44.6 ° F 100% 30.51 pul 4.3 mi SO 6.9 mph - N/A   Llovizna débil
8:00 AM 44.6 ° F 40.7 ° F 44.6 ° F 100% 30.51 pul 5.0 mi SO 6.9 mph - N/A   Llovizna débil
8:30 AM 44.6 ° F 41.4 ° F 44.6 ° F 100% 30.51 pul 4.3 mi SSO 5.8 mph - N/A   Llovizna débil
9:00 AM 44.6 ° F 41.4 ° F 44.6 ° F 100% 30.51 pul 3.1 mi SO 5.8 mph - N/A Lluvia Lluvia débil
10:00 AM 46 ° F - 46 ° F 100% 30.55 pul - Sur 4.6 mph - -   Precipitación desconocida
10:00 AM 46.4 ° F 43.5 ° F 46.4 ° F 100% 30.54 pul 4.3 mi SSO 5.8 mph - N/A Lluvia Lluvia débil
10:30 AM 46.4 ° F - 46.4 ° F 100% 30.54 pul 3.7 mi Variable 2.3 mph - N/A Lluvia Lluvia débil
11:00 AM 47 ° F - 47 ° F 100% 30.56 pul - SSE 3.5 mph - -   Precipitación desconocida
11:00 AM 46.4 ° F 45.2 ° F 46.4 ° F 100% 30.54 pul 3.1 mi SSO 3.5 mph - N/A Lluvia Lluvia débil
11:30 AM 48.2 ° F - 48.2 ° F 100% 30.54 pul 5.0 mi SSO 3.5 mph - N/A Lluvia Lluvia débil
12:00 PM 48 ° F - 48 ° F 100% 30.56 pul - SSO 6.9 mph - -   Precipitación desconocida
12:00 PM 48.2 ° F - 48.2 ° F 100% 30.54 pul 6.2 mi SSO 5.8 mph - N/A   Muy nublado
12:30 PM 48.2 ° F - 48.2 ° F 100% 30.54 pul 6.2 mi SSO 6.9 mph - N/A   Muy nublado
1:00 PM 49 ° F - 49 ° F 98% 30.55 pul 6 mi Sur 6.9 mph - - Lluvia Lluvia débil
1:00 PM 48.2 ° F - 48.2 ° F 100% 30.54 pul 6.2 mi SSO 4.6 mph - N/A Lluvia Lluvia débil
1:30 PM 48.2 ° F - 48.2 ° F 100% 30.54 pul 3.7 mi SSO 3.5 mph - N/A Lluvia Lluvia débil
2:00 PM 50 ° F - 50 ° F 98% 30.54 pul - Oeste 6.9 mph - -   Precipitación desconocida
2:00 PM 48.2 ° F - 48.2 ° F 100% 30.54 pul 3.1 mi SO 4.6 mph - N/A Lluvia Lluvia débil
3:00 PM 50 ° F - 49 ° F 96% 30.53 pul - Oeste 9.2 mph - -   Precipitación desconocida
3:00 PM 50.0 ° F - 50.0 ° F 100% 30.51 pul 3.7 mi Oeste 9.2 mph - N/A Lluvia Lluvia débil
3:30 PM 50.0 ° F - 50.0 ° F 100% 30.51 pul 3.7 mi Oeste 5.8 mph - N/A Lluvia Lluvia débil
4:00 PM 49 ° F - 49 ° F 100% 30.53 pul 11 mi ONO 4.6 mph - - Lluvia Lluvia débil
4:00 PM 50.0 ° F - 50.0 ° F 100% 30.51 pul 6.2 mi Variable 1.2 mph - N/A Lluvia Lluvia débil
4:30 PM 50.0 ° F - 48.2 ° F 94% 30.54 pul 6.2 mi ONO 4.6 mph - N/A Lluvia Lluvia débil
5:00 PM 49 ° F - 49 ° F 98% 30.54 pul - Oeste 3.5 mph - -   Precipitación desconocida
5:00 PM 50.0 ° F - 48.2 ° F 94% 30.54 pul 6.2 mi Oeste 3.5 mph - N/A Lluvia Lluvia débil
5:30 PM 48.2 ° F - 48.2 ° F 100% 30.54 pul 5.0 mi SO 5.8 mph - N/A Lluvia Lluvia débil
6:00 PM 49 ° F - 49 ° F 98% 30.54 pul - NNE 1.2 mph - -   Precipitación desconocida
6:00 PM 48.2 ° F - 48.2 ° F 100% 30.54 pul 5.0 mi SSO 1.2 mph - N/A Lluvia Lluvia débil
6:30 PM 48.2 ° F - 48.2 ° F 100% 30.54 pul 6.2 mi SSO 4.6 mph - N/A   Nublado
7:00 PM 48 ° F - 48 ° F 100% 30.56 pul 16 mi SSO 5.8 mph - - Lluvia Lluvia débil
7:00 PM 48.2 ° F - 48.2 ° F 100% 30.54 pul 6.2 mi SO 6.9 mph - N/A   Nublado
7:30 PM 48.2 ° F - 48.2 ° F 100% 30.54 pul 6.2 mi SO 5.8 mph - N/A   Nublado
8:00 PM 48 ° F - 48 ° F 100% 30.56 pul - SSO 5.8 mph - -   Precipitación desconocida
8:00 PM 48.2 ° F - 48.2 ° F 100% 30.54 pul 6.2 mi SO 5.8 mph - N/A   Nublado
8:30 PM 48.2 ° F - 48.2 ° F 100% 30.54 pul 6.2 mi SSO 5.8 mph - N/A   Nublado
9:00 PM 48 ° F - 48 ° F 100% 30.56 pul - SSO 5.8 mph - -   Precipitación desconocida
9:00 PM 48.2 ° F - 48.2 ° F 100% 30.54 pul 6.2 mi SSO 5.8 mph - N/A   Nublado
9:30 PM 48.2 ° F - 48.2 ° F 100% 30.54 pul 6.2 mi SO 5.8 mph - N/A   Muy nublado
10:00 PM 48 ° F - 48 ° F 100% 30.56 pul 16 mi SO 4.6 mph - -   Nublado
10:00 PM 48.2 ° F - 48.2 ° F 100% 30.54 pul 6.2 mi SO 5.8 mph - N/A   Nublado
10:30 PM 48.2 ° F - 48.2 ° F 100% 30.54 pul 6.2 mi OSO 3.5 mph - N/A   Nublado
11:00 PM 48.2 ° F - 48.2 ° F 100% 30.54 pul 6.2 mi SSO 5.8 mph - N/A   Nublado
11:30 PM 48.2 ° F - 48.2 ° F 100% 30.54 pul 5.0 mi SO 6.9 mph - N/A   Nublado